Regional Weather Roundup
Issued by NWS

Home | Current Version | Previous Version | Text Only | Print | Product List | Glossary Off
Versions: 1 2 3 4 5 6 7 8 9 10 11 12 13 14 15 16 17 18 19 20 21 22 23 24 25 26

000
ASUS45 KCYS 182010
RWRWY

WYOMING REGIONAL WEATHER ROUNDUP
NATIONAL WEATHER SERVICE CHEYENNE WY
100 PM MST SUN FEB 18 2018

NOTE:  "FAIR" INDICATES FEW OR NO CLOUDS BELOW 12,000 FEET
WITH NO SIGNIFICANT WEATHER AND/OR OBSTRUCTIONS TO VISIBILITY.

WYZ001-182100-
YELLOWSTONE NATIONAL PARK

CITY           SKY/WX    TMP DP  RH WIND       PRES   REMARKS
LK YELLOWSTONE   N/A     19  15  84 NW3G17    29.42R
W YELLOWSTONE  NOT AVBL

$$
WYZ002>013-054>058-071-098>099-182100-
NORTHERN WYOMING

CITY           SKY/WX    TMP DP  RH WIND       PRES   REMARKS
JACKSON        CLOUDY    30  17  58 S18G24    29.46S WCI  18
CODY           LGT SNOW   8   2  76 N21G28    29.64F WCI -12
GREYBULL       LGT SNOW  11   8  88 NW22      29.65R VSB 3/4 WCI  -8
WORLAND        LGT SNOW  13   8  81 NW14      29.68S WCI  -2
SHERIDAN       SNOW       8   4  83 NW18      29.79R VSB 1/4 WCI -11
BUFFALO        HVY SNOW   6   1  80 N21       29.65S VSB 1/4 WCI -14
GILLETTE       HAZE      10   5  80 N20       29.67S VSB 3/4 WCI  -9
HULETT         LGT SNOW  12   5  73 MISG      29.69F
NEWCASTLE      FAIR      21  14  73 NW24G31   29.54R WCI   4

$$
WYZ014>020-022>026-101>103-182100-
CENTRAL WYOMING

CITY           SKY/WX    TMP DP  RH WIND       PRES   REMARKS
BIG PINEY      CLOUDY    30  15  53 NW13G24   29.49F WCI  20
PINEDALE       CLOUDY    28  16  59 NW17G23   29.49F WCI  16
DUBOIS         NOT AVBL
LANDER         CLOUDY    30  28  92 E14       29.45S WCI  19
RIVERTON       LGT SNOW  23  18  81 NE15      29.47R WCI  10
CASPER         LGT SNOW  15  10  80 NE15      29.58R WCI   0
DOUGLAS        CLOUDY    23  15  71 N17       29.56S WCI   9

$$
WYZ021-027>030-104>119-182100-
SOUTHERN WYOMING

CITY           SKY/WX    TMP DP  RH WIND       PRES   REMARKS
EVANSTON       CLOUDY    37  24  59 W29G35    29.49F WCI  25
FORT BRIDGER   CLOUDY    45  19  36 W29G45    29.51F
ROCK SPRINGS   FAIR      46  18  32 W33G41    29.45F
DIXON          FAIR      43  21  41 SW15G28   29.55F
RAWLINS        CLOUDY    45  16  31 SW35G45   29.45F
SARATOGA       FAIR      45  18  33 SW30G40   29.49F
LARAMIE        FAIR      50  13  22 SW36G55   29.47F
CHEYENNE       FAIR      58  12  16 W33G43    29.47F
TORRINGTON     FAIR      55  24  30 NE9       29.43F
PINE BLUFFS    FAIR      63   9  12 W5G10     29.44F

$$




USA.gov is the U.S. government's official web portal to all federal, state and local government web resources and services.